Tiempo cada hora Dahod

Hoy, 2 Agosto, Lunes

Tiempo Temperatura Precipitaciones Viento Presión Humedad
00:00 +26°C° 1.6 mm 7 mps 726 mmHg 86%
01:00 +26°C° 1.6 mm 7 mps 725 mmHg 88%
02:00 +26°C° 1.6 mm 7 mps 725 mmHg 90%
03:00 +26°C° 0.6 mm 7 mps 725 mmHg 90%
04:00 +26°C° 0.6 mm 7 mps 725 mmHg 90%
05:00 +26°C° 0 mm 7 mps 725 mmHg 91%
06:00 +26°C° 0.3 mm 6 mps 725 mmHg 90%
07:00 +26°C° 0.3 mm 6 mps 726 mmHg 90%
08:00 +26°C° 0.3 mm 5 mps 726 mmHg 90%
09:00 +26°C° 0.4 mm 5 mps 726 mmHg 89%
10:00 +26°C° 0.4 mm 5 mps 726 mmHg 88%
11:00 +26°C° 0 mm 4 mps 726 mmHg 89%
12:00 +26°C° 0.4 mm 4 mps 726 mmHg 89%
13:00 +26°C° 0.4 mm 4 mps 726 mmHg 89%
14:00 +26°C° 0.4 mm 4 mps 726 mmHg 88%
15:00 +27°C° 0 mm 4 mps 726 mmHg 88%
16:00 +27°C° 0 mm 4 mps 725 mmHg 87%
17:00 +27°C° 0 mm 3 mps 725 mmHg 87%
18:00 +27°C° 0 mm 4 mps 725 mmHg 87%
19:00 +27°C° 0 mm 5 mps 726 mmHg 87%
20:00 +27°C° 0 mm 6 mps 726 mmHg 87%
21:00 +27°C° 0.1 mm 6 mps 726 mmHg 88%
22:00 +26°C° 0.1 mm 6 mps 726 mmHg 89%
23:00 +26°C° 0.1 mm 7 mps 727 mmHg 90%

Mañana, 3 Agosto, Martes

Tiempo Temperatura Precipitaciones Viento Presión Humedad
00:00 +26°C° 0.1 mm 7 mps 727 mmHg 90%
01:00 +26°C° 0.1 mm 6 mps 726 mmHg 89%
02:00 +26°C° 0.1 mm 6 mps 726 mmHg 89%
03:00 +26°C° 0.1 mm 6 mps 726 mmHg 88%
04:00 +26°C° 0.1 mm 6 mps 727 mmHg 88%
05:00 +26°C° 0.1 mm 6 mps 727 mmHg 87%
06:00 +26°C° 0 mm 6 mps 727 mmHg 87%
07:00 +26°C° 0 mm 6 mps 727 mmHg 86%
08:00 +26°C° 0 mm 6 mps 727 mmHg 86%
09:00 +27°C° 0 mm 6 mps 727 mmHg 85%
10:00 +27°C° 0 mm 6 mps 727 mmHg 84%
11:00 +27°C° 0 mm 6 mps 728 mmHg 83%
12:00 +27°C° 0 mm 6 mps 727 mmHg 83%
13:00 +27°C° 0 mm 6 mps 727 mmHg 82%
14:00 +27°C° 0 mm 5 mps 726 mmHg 82%
15:00 +28°C° 0.1 mm 5 mps 726 mmHg 81%
16:00 +28°C° 0.1 mm 5 mps 726 mmHg 81%
17:00 +28°C° 0.1 mm 4 mps 726 mmHg 81%
18:00 +28°C° 0.2 mm 4 mps 726 mmHg 82%
19:00 +27°C° 0.2 mm 4 mps 727 mmHg 83%
20:00 +27°C° 0.2 mm 4 mps 727 mmHg 84%
21:00 +27°C° 0.4 mm 5 mps 727 mmHg 86%
22:00 +27°C° 0.4 mm 6 mps 727 mmHg 87%
23:00 +27°C° 0.4 mm 6 mps 727 mmHg 89%

Pasado mañana, 4 Agosto, Miércoles

Tiempo Temperatura Precipitaciones Viento Presión Humedad
00:00 +27°C° 0.4 mm 6 mps 727 mmHg 89%
01:00 +26°C° 0.4 mm 6 mps 727 mmHg 90%
02:00 +26°C° 0.4 mm 6 mps 727 mmHg 90%
03:00 +26°C° 0.1 mm 6 mps 727 mmHg 90%
04:00 +26°C° 0.1 mm 6 mps 727 mmHg 90%
05:00 +26°C° 0.1 mm 6 mps 727 mmHg 90%
06:00 +27°C° 0.3 mm 6 mps 727 mmHg 88%
07:00 +27°C° 0.3 mm 6 mps 728 mmHg 87%
08:00 +27°C° 0.3 mm 7 mps 728 mmHg 85%
09:00 +28°C° 0.1 mm 7 mps 728 mmHg 82%
10:00 +28°C° 0.1 mm 7 mps 728 mmHg 80%
11:00 +29°C° 0.1 mm 7 mps 728 mmHg 77%
12:00 +30°C° 0.3 mm 7 mps 727 mmHg 74%
13:00 +31°C° 0.3 mm 8 mps 727 mmHg 71%
14:00 +32°C° 0.3 mm 8 mps 727 mmHg 68%
15:00 +30°C° 1.1 mm 7 mps 726 mmHg 71%
16:00 +29°C° 1.1 mm 7 mps 726 mmHg 74%
17:00 +29°C° 1.1 mm 6 mps 726 mmHg 77%
18:00 +28°C° 1.1 mm 6 mps 726 mmHg 78%
19:00 +28°C° 1.1 mm 6 mps 727 mmHg 79%
20:00 +28°C° 1.1 mm 6 mps 727 mmHg 81%
21:00 +28°C° 1.1 mm 6 mps 727 mmHg 83%
22:00 +27°C° 1.1 mm 7 mps 727 mmHg 84%
23:00 +27°C° 1.1 mm 7 mps 727 mmHg 86%

5 Agosto, Jueves

Tiempo Temperatura Precipitaciones Viento Presión Humedad
00:00 +27°C° 1 mm 7 mps 727 mmHg 88%
01:00 +27°C° 1 mm 6 mps 727 mmHg 89%
02:00 +26°C° 1 mm 6 mps 726 mmHg 91%
03:00 +26°C° 0.8 mm 6 mps 727 mmHg 91%
04:00 +26°C° 0.8 mm 6 mps 727 mmHg 91%
05:00 +26°C° 0.8 mm 5 mps 727 mmHg 90%
06:00 +26°C° 0.1 mm 5 mps 727 mmHg 89%
07:00 +27°C° 0.1 mm 5 mps 727 mmHg 88%
08:00 +27°C° 0.1 mm 5 mps 728 mmHg 86%
09:00 +27°C° 0.1 mm 5 mps 728 mmHg 86%
10:00 +27°C° 0.1 mm 5 mps 728 mmHg 85%
11:00 +27°C° 0.1 mm 5 mps 728 mmHg 84%
12:00 +28°C° 0 mm 5 mps 727 mmHg 84%
13:00 +28°C° 0 mm 5 mps 727 mmHg 83%
14:00 +28°C° 0 mm 4 mps 727 mmHg 83%
15:00 +28°C° 0 mm 4 mps 726 mmHg 81%
16:00 +28°C° 0 mm 5 mps 726 mmHg 80%
17:00 +28°C° 0 mm 5 mps 726 mmHg 79%
18:00 +28°C° 0 mm 4 mps 726 mmHg 82%
19:00 +27°C° 0 mm 4 mps 727 mmHg 85%
20:00 +27°C° 0 mm 3 mps 727 mmHg 88%
21:00 +27°C° 0.1 mm 4 mps 727 mmHg 89%
22:00 +26°C° 0.1 mm 4 mps 727 mmHg 89%
23:00 +26°C° 0.1 mm 5 mps 727 mmHg 90%

6 Agosto, Viernes

Tiempo Temperatura Precipitaciones Viento Presión Humedad
00:00 +26°C° 0.1 mm 5 mps 726 mmHg 91%
01:00 +26°C° 0.1 mm 5 mps 726 mmHg 92%
02:00 +26°C° 0.1 mm 5 mps 726 mmHg 93%
03:00 +26°C° 0.1 mm 5 mps 726 mmHg 93%
04:00 +26°C° 0.1 mm 4 mps 726 mmHg 93%
05:00 +26°C° 0.1 mm 4 mps 726 mmHg 93%
06:00 +26°C° 0.1 mm 4 mps 727 mmHg 89%
07:00 +27°C° 0.1 mm 4 mps 727 mmHg 85%
08:00 +28°C° 0.1 mm 4 mps 728 mmHg 81%
09:00 +29°C° 0 mm 5 mps 728 mmHg 76%
10:00 +30°C° 0 mm 5 mps 727 mmHg 72%
11:00 +32°C° 0 mm 5 mps 727 mmHg 67%
12:00 +32°C° 0.1 mm 5 mps 727 mmHg 65%
13:00 +33°C° 0.1 mm 6 mps 726 mmHg 62%
14:00 +34°C° 0.1 mm 6 mps 726 mmHg 60%
15:00 +33°C° 0.1 mm 5 mps 726 mmHg 64%
16:00 +32°C° 0.1 mm 4 mps 726 mmHg 67%
17:00 +30°C° 0.1 mm 4 mps 725 mmHg 71%
18:00 +30°C° 0 mm 4 mps 726 mmHg 74%
19:00 +29°C° 0 mm 4 mps 726 mmHg 78%
20:00 +28°C° 0 mm 5 mps 726 mmHg 81%
21:00 +28°C° 0 mm 5 mps 726 mmHg 84%
22:00 +27°C° 0 mm 5 mps 726 mmHg 87%
23:00 +27°C° 0 mm 6 mps 726 mmHg 90%

7 Agosto, Sábado

Tiempo Temperatura Precipitaciones Viento Presión Humedad
00:00 +27°C° 0.1 mm 6 mps 726 mmHg 91%
01:00 +26°C° 0.1 mm 6 mps 726 mmHg 92%
02:00 +26°C° 0.1 mm 6 mps 726 mmHg 92%
03:00 +26°C° 0.1 mm 6 mps 726 mmHg 93%
04:00 +26°C° 0.1 mm 5 mps 726 mmHg 93%
05:00 +26°C° 0.1 mm 5 mps 726 mmHg 93%
06:00 +27°C° 0.1 mm 5 mps 727 mmHg 89%
07:00 +27°C° 0.1 mm 5 mps 727 mmHg 86%
08:00 +28°C° 0.1 mm 5 mps 728 mmHg 82%
09:00 +29°C° 0.1 mm 5 mps 728 mmHg 77%
10:00 +32°C° 0.1 mm 5 mps 728 mmHg 71%
11:00 +33°C° 0.1 mm 5 mps 728 mmHg 65%
12:00 +33°C° 0.2 mm 5 mps 728 mmHg 63%
13:00 +34°C° 0.2 mm 5 mps 727 mmHg 61%
14:00 +34°C° 0.2 mm 5 mps 727 mmHg 59%
15:00 +34°C° 0.1 mm 5 mps 727 mmHg 59%
16:00 +33°C° 0.1 mm 5 mps 726 mmHg 60%
17:00 +33°C° 0.1 mm 4 mps 726 mmHg 61%
18:00 +32°C° 0 mm 4 mps 727 mmHg 66%
19:00 +30°C° 0 mm 4 mps 727 mmHg 70%
20:00 +29°C° 0 mm 4 mps 727 mmHg 75%
21:00 +28°C° 0 mm 4 mps 727 mmHg 78%
22:00 +28°C° 0 mm 5 mps 728 mmHg 81%
23:00 +27°C° 0 mm 5 mps 728 mmHg 84%
Mostrar más

Necesitamos Su Consentimiento

Meteoprog y nuestros Proveedores de Servicios pueden almacenar y acceder a sus datos personales como cookies, identificadores de dispositivo u otras tecnologías similares de su dispositivo y procesar dichos datos para personalizar contenido y anuncios, además de ofrecer funciones de redes sociales y analizar el tráfico.

  • Almacenar y/o acceder a información en su dispositivo

    Se puede almacenar o acceder a cookies, identificadores de dispositivo u otra información de su dispositivo para los fines anteriormente indicados.

  • Anuncios y contenido personalizados, medición de anuncios y contenido, percepciones del público, y desarrollo de productos

    Los anuncios y el contenido pueden personalizarse en base a su perfil. Se pueden añadir más datos para personalizar mejor los anuncios y contenidos. Se puede medir el rendimiento de los anuncios y contenidos. Se puede obtener la percepción sobre el público que ha visto los anuncios y contenidos. Dichos datos pueden usarse para desarrollar o mejorar la experiencia del usuario, sistemas y software.

Al hacer clic en ‘Estoy De Acuerdo’ usted permitirá el uso de las cookies, identificadores de dispositivo, balizas web u otras tecnologías similares indicadas. Su configuración puede cambiarse desde el navegador de su dispositivo.

Para ciertos fines, los intereses legítimos pueden ser considerados por encima del consentimiento. Puede leer más sobre ello en nuestra Política de Privacidad y Cookies.